This is the latest recevied weather packets stored in our database for station/object EA4URC-10. If no packets are shown the sender has not sent any weather packets the latest 10 day(s).
| Time | Temp. | Humidity | Pressure | Rain* | Wind** | Luminosity | Snow |
|---|---|---|---|---|---|---|---|
| 1777107782 | 13.89° C | 88% | 1033.3 hPa | - | - | - | - |
| 1777105988 | 13.33° C | 85% | 1033.1 hPa | - | - | - | - |
| 1777104187 | 12.78° C | 89% | 1033.2 hPa | - | - | - | - |
| 1777102387 | 11.67° C | 95% | 1033.3 hPa | - | - | - | - |
| 1777100586 | 11.11° C | 100% | 1033.2 hPa | - | - | - | - |
| 1777098786 | 11.11° C | 100% | 1033.2 hPa | - | - | - | - |
| 1777096985 | 10° C | 100% | 1033 hPa | - | - | - | - |
| 1777095184 | 8.89° C | 100% | 1032.9 hPa | - | - | - | - |
| 1777093391 | 8.89° C | 100% | 1032.5 hPa | - | - | - | - |
| 1777091583 | 9.44° C | 100% | 1032.4 hPa | - | - | - | - |
| 1777089783 | 9.44° C | 100% | 1032.5 hPa | - | - | - | - |
| 1777087982 | 9.44° C | 100% | 1032.7 hPa | - | - | - | - |
| 1777086182 | 9.44° C | 100% | 1032.7 hPa | - | - | - | - |
| 1777084390 | 10° C | 100% | 1032.6 hPa | - | - | - | - |
| 1777082587 | 10° C | 100% | 1032.6 hPa | - | - | - | - |
| 1777080786 | 10° C | 100% | 1032.5 hPa | - | - | - | - |
| 1777078986 | 10° C | 100% | 1032.6 hPa | - | - | - | - |
| 1777077185 | 10° C | 100% | 1032.9 hPa | - | - | - | - |
| 1777075384 | 10° C | 100% | 1033.2 hPa | - | - | - | - |
| 1777073584 | 10° C | 100% | 1033.5 hPa | - | - | - | - |
| 1777071783 | 10° C | 100% | 1033.7 hPa | - | - | - | - |
| 1777069983 | 10° C | 100% | 1033.7 hPa | - | - | - | - |
| 1777068182 | 10.56° C | 100% | 1033.6 hPa | - | - | - | - |
| 1777066381 | 10° C | 100% | 1033.4 hPa | - | - | - | - |
| 1777064581 | 10.56° C | 100% | 1033.2 hPa | - | - | - | - |
* Rain since midnight (hover to see other rain measurements)
** Current wind speed in m/s (hover to see current wind gust speed)